Theta_e
331 332 330 328 327 328 330 330 329 329 329 330 330 330 326 325 319 316 314 317 318 320 322 319 324 328 332 333 334 333 329 322 324 328 325 322 319 312 310 307 307 306 304 304 303 303 302 302 302 305 307 307 306 305 304 304 303 302 302 301 300 302 300 300 303 300 300 300 299 298 298 299 299 298
327 329 330 330 328 328 329 329 330 329 329 330 330 330 330 329 323 321 316 316 321 320 323 323 322 328 331 332 333 333 327 316 324 326 323 320 317 307 306 305 305 304 303 303 302 301 301 302 304 306 307 306 306 305 304 303 302 302 302 302 300 300 299 299 299 299 299 299 298 298 298 298 298 298
326 326 327 328 328 330 329 329 330 330 332 331 332 331 331 329 327 324 323 317 321 325 323 324 326 327 329 330 331 330 325 320 325 322 320 316 308 306 305 304 303 304 303 302 301 301 301 301 302 304 306 306 305 303 303 303 302 301 301 301 300 299 298 298 298 298 298 298 298 298 297 298 297 298
324 325 325 328 328 329 329 328 329 329 332 332 331 331 331 331 329 327 324 321 320 324 324 324 324 326 328 327 327 326 321 320 317 319 311 308 306 306 305 303 302 302 302 301 302 302 302 302 301 302 303 303 302 302 302 301 301 300 300 300 299 298 298 297 297 297 297 297 297 296 297 297 297 297
322 322 323 324 328 329 327 327 328 329 329 330 330 330 332 330 332 328 324 320 321 323 329 327 324 325 327 324 325 323 321 321 316 311 310 308 308 306 305 304 302 301 301 301 301 301 301 301 300 300 300 300 300 300 300 300 300 299 299 298 298 298 297 296 296 295 296 296 296 295 296 296 296 297
321 322 321 322 324 326 326 328 327 328 328 328 328 327 329 329 330 331 327 324 322 319 322 326 326 325 324 320 323 321 319 317 311 309 309 308 308 306 305 303 303 301 301 300 300 300 300 299 299 299 298 298 299 299 299 299 298 297 296 296 296 296 295 295 295 294 294 295 295 295 295 295 296 297
320 320 321 320 322 324 324 326 329 329 327 328 328 327 329 328 329 330 330 327 322 321 321 326 322 323 322 321 320 319 318 313 309 308 308 306 305 304 304 303 303 300 299 299 299 299 299 299 298 298 298 297 297 297 297 296 296 296 295 295 295 294 294 293 293 292 293 294 294 294 294 294 295 297
318 320 319 320 321 322 322 324 325 327 329 327 327 328 327 330 330 331 332 329 325 324 320 325 321 321 319 319 319 315 314 309 307 307 306 304 303 302 302 302 301 300 299 298 299 299 299 298 297 297 297 298 296 296 296 296 295 295 295 294 294 294 294 293 292 293 292 293 292 293 293 294 295 297
315 317 319 320 321 320 320 322 322 326 329 328 328 329 329 329 330 330 330 328 327 325 323 324 323 322 321 320 315 315 310 307 307 306 304 303 302 302 302 301 300 299 299 299 299 298 298 297 297 297 297 297 296 295 295 295 295 294 294 294 294 293 293 293 293 293 293 292 292 292 293 293 295 297
313 315 317 319 321 321 320 320 322 323 325 327 327 328 328 329 329 329 329 328 326 325 325 323 321 321 319 315 315 312 308 306 303 303 303 303 302 301 300 299 298 299 298 299 298 297 297 298 298 297 297 296 295 295 295 295 294 294 294 294 293 293 293 293 293 293 293 293 293 293 292 293 294 296
312 313 315 317 319 320 321 321 321 322 324 324 328 330 328 327 326 328 327 327 326 324 323 323 323 320 318 314 310 310 309 307 304 302 300 299 300 300 298 296 297 298 298 298 297 297 296 297 295 297 296 296 295 295 295 295 294 294 294 294 294 293 293 292 292 293 293 293 293 293 293 292 293 294
312 313 315 316 318 319 320 321 322 323 321 324 327 329 328 327 327 329 328 327 325 323 322 322 319 318 314 311 311 311 309 305 304 304 301 298 297 298 298 297 296 297 297 295 295 297 297 295 296 296 296 295 295 295 295 295 295 294 294 293 293 293 293 292 292 292 292 292 292 292 293 292 292 293
310 313 315 316 317 318 315 311 311 313 314 324 323 328 332 332 330 327 327 327 325 324 323 322 320 315 312 310 309 307 305 303 301 302 302 299 299 299 298 297 298 297 295 295 294 294 294 293 294 293 293 293 294 294 294 294 294 294 293 293 293 293 292 292 291 291 291 291 291 292 292 291 291 292
308 310 313 315 311 309 309 307 305 303 303 305 317 326 330 330 330 328 328 325 326 324 321 319 317 314 311 310 309 307 307 307 305 302 302 300 300 299 297 297 298 298 297 294 293 294 295 295 293 292 292 293 294 293 293 293 293 294 293 293 293 292 292 291 291 291 291 291 291 291 292 292 291 291
306 309 311 313 313 312 309 312 304 303 302 302 302 305 311 317 330 327 322 327 325 323 322 320 317 314 311 312 310 308 308 307 305 303 304 302 300 297 295 293 297 299 297 295 294 294 296 296 293 292 293 294 294 293 292 295 293 293 293 293 293 292 292 292 291 291 291 291 291 291 291 291 291 291
306 307 309 311 314 316 317 319 319 312 306 302 301 301 304 306 307 308 323 329 325 324 322 321 320 315 314 313 310 308 307 305 305 306 306 303 300 298 297 298 296 299 299 296 295 295 296 297 295 294 294 296 295 295 297 294 293 292 293 293 293 292 292 291 291 291 291 291 291 291 291 291 291 291
305 307 308 310 313 316 310 315 319 320 320 308 301 303 303 304 303 305 303 306 326 327 324 322 321 318 317 313 310 309 307 307 305 305 304 303 302 302 301 302 300 299 300 298 297 295 295 296 295 295 297 298 299 296 294 293 292 293 293 293 293 292 292 291 291 291 291 291 291 291 291 291 291 291
302 305 307 309 311 314 317 318 318 319 320 322 319 315 318 322 316 303 303 302 304 314 328 326 322 321 320 313 313 312 310 308 307 306 305 306 303 303 304 306 303 300 301 298 298 295 294 296 296 295 298 300 296 296 294 292 292 292 292 292 292 292 291 291 291 291 291 291 291 291 291 291 291 291
301 303 305 308 310 313 315 317 317 320 320 320 322 322 322 324 327 326 323 324 324 323 326 325 324 323 320 318 316 314 313 313 312 311 310 308 306 307 306 304 301 299 301 301 299 294 294 296 295 296 298 299 299 296 292 292 292 292 292 291 291 291 291 291 291 291 291 291 291 291 291 291 290 290
300 301 303 305 307 311 313 310 303 307 319 321 320 322 324 324 326 327 316 313 317 324 328 328 326 325 324 311 316 314 314 316 312 307 304 303 301 301 299 296 297 297 300 301 299 299 295 296 296 296 298 299 297 292 292 292 292 292 291 291 291 290 291 291 291 291 291 291 291 291 291 291 291 290
299 300 302 303 306 308 311 307 302 300 302 320 319 318 322 323 325 320 304 296 296 300 305 311 310 307 303 303 303 301 302 306 306 305 302 300 301 298 295 295 295 295 297 299 301 301 295 296 296 297 298 298 296 294 293 291 291 291 291 290 291 290 290 291 291 291 291 291 291 291 291 291 291 291
299 300 300 302 304 307 310 304 300 299 304 318 319 319 320 321 317 309 307 305 299 294 294 294 297 299 301 301 300 300 299 299 302 306 301 301 301 299 299 295 295 296 297 298 302 299 296 296 296 296 297 297 298 297 294 292 291 291 291 291 290 290 290 290 290 291 291 291 291 291 291 291 291 293
298 299 300 300 301 303 306 301 300 299 303 318 319 319 320 317 315 309 309 307 306 306 305 304 304 302 300 303 304 302 298 299 302 310 306 303 302 300 299 298 296 293 294 297 301 296 296 294 296 297 293 292 294 298 296 293 293 291 292 292 291 291 290 290 291 291 291 291 291 292 292 292 292 293
298 299 300 300 296 295 296 296 296 296 295 311 319 320 319 317 315 311 312 312 310 308 307 305 306 306 306 303 302 301 302 306 308 306 305 305 305 304 299 297 296 295 294 296 299 297 298 296 294 297 295 292 290 295 297 295 295 294 294 294 293 292 291 290 291 291 291 292 291 292 292 291 292 294
297 298 300 302 299 296 296 296 296 296 296 297 314 321 322 319 315 306 310 306 300 306 303 303 302 302 301 301 301 302 304 304 304 303 303 306 309 306 300 297 296 296 296 296 297 298 297 296 294 296 296 295 297 295 296 296 296 297 298 297 297 296 293 293 293 295 293 291 291 291 291 291 291 293
298 299 300 302 300 296 295 296 296 297 297 296 308 320 307 297 296 309 307 306 305 303 301 299 298 299 298 299 300 300 301 301 302 303 303 304 307 311 305 301 298 294 293 295 294 299 299 295 296 294 296 295 297 296 294 295 297 297 297 297 297 297 297 296 296 297 298 298 297 293 293 292 291 291
298 300 301 302 299 297 296 296 296 297 297 297 308 302 294 295 296 300 306 303 303 301 299 298 298 298 298 297 298 299 299 300 301 302 302 300 300 299 300 301 299 296 295 296 299 301 299 296 299 295 295 295 294 295 295 293 294 297 296 296 297 297 297 297 295 296 296 296 297 294 292 292 291 291
299 300 302 302 299 298 297 297 296 296 296 305 297 292 294 294 297 305 303 302 302 299 297 297 297 297 297 298 298 297 298 298 299 298 297 297 297 297 295 295 295 296 297 297 298 298 299 297 297 299 298 295 294 292 292 294 295 294 294 297 297 297 297 296 296 295 295 297 296 297 296 296 297 298
299 299 298 299 297 296 295 294 294 295 296 294 291 293 293 298 305 304 303 301 300 298 296 296 296 296 296 297 297 297 296 295 295 294 294 295 295 295 295 294 295 295 297 297 297 298 301 299 298 298 298 297 295 295 294 293 294 294 294 293 292 295 295 296 296 295 295 296 295 294 294 295 295 296
295 295 297 294 293 293 295 298 301 303 299 292 292 291 296 305 304 302 301 300 299 297 296 294 293 295 295 294 294 295 295 295 292 292 291 291 291 292 291 291 292 295 297 297 296 296 297 297 297 297 295 295 294 295 295 293 293 293 291 293 294 294 295 296 295 296 294 294 294 294 296 296 295 295
297 297 296 295 294 295 293 296 296 295 291 292 294 297 301 302 302 302 300 300 299 297 295 293 294 294 294 293 292 292 292 291 292 292 291 292 292 292 290 289 288 290 293 294 295 295 295 296 297 297 293 293 294 295 295 295 293 293 293 294 293 289 293 295 295 294 294 294 294 294 296 296 296 295
298 296 292 292 296 297 297 297 295 294 295 294 294 300 301 301 301 298 296 296 298 297 296 294 293 291 290 290 291 291 291 291 291 292 292 290 290 290 288 286 285 287 288 290 292 294 292 296 297 297 296 294 293 293 294 294 292 293 293 293 293 293 294 293 293 294 295 293 293 293 294 294 294 295
296 295 295 294 294 294 292 292 293 294 295 294 296 298 299 298 298 297 296 294 293 293 292 290 289 288 289 289 290 289 289 289 290 291 291 291 289 288 288 286 286 286 286 287 288 291 293 295 295 295 295 297 296 295 293 290 292 293 292 292 293 292 293 294 293 293 294 292 292 293 293 294 295 295
293 292 292 292 292 292 293 292 291 291 292 292 292 293 292 293 295 294 293 292 291 290 291 290 288 288 288 288 289 289 288 288 289 290 288 289 288 288 288 287 287 288 288 288 288 288 290 291 292 293 294 293 296 294 294 294 293 294 293 293 293 292 293 294 293 293 293 292 292 291 291 291 294 294
292 291 291 290 291 291 292 291 291 290 290 291 291 291 292 292 291 290 290 290 289 288 288 289 288 288 287 288 288 287 287 287 288 289 289 291 289 288 287 287 287 287 287 288 288 290 291 290 291 290 291 291 289 290 291 291 293 292 293 292 292 291 292 293 291 292 292 292 293 289 288 291 291 293
291 291 290 290 290 290 290 290 290 290 290 290 290 290 290 289 289 288 288 289 289 288 288 288 287 287 288 288 288 288 287 287 287 288 288 289 288 288 288 288 288 288 288 288 289 291 291 291 291 289 288 288 287 285 285 289 291 291 289 288 291 291 291 291 291 292 291 292 292 290 288 288 289 291
291 291 290 290 290 290 290 290 291 291 290 290 290 290 289 288 288 289 288 288 289 288 288 288 287 287 287 287 287 287 287 287 287 288 287 288 288 288 288 287 287 288 288 289 290 290 292 291 291 290 289 288 287 287 285 286 287 290 291 288 287 291 289 288 288 289 291 292 291 290 288 288 288 291
290 291 290 290 290 291 291 291 290 290 290 290 290 289 289 289 288 289 289 289 288 288 288 287 287 287 287 287 286 286 286 287 287 287 287 287 287 287 287 287 288 288 288 289 290 290 290 290 290 290 290 288 288 287 284 286 287 287 288 290 287 286 288 288 288 288 288 291 290 290 290 288 289 289
291 290 289 289 290 290 289 289 289 290 290 289 289 288 288 288 287 287 288 288 288 287 287 287 287 287 286 286 286 286 286 286 286 286 287 287 287 287 287 287 287 288 288 288 289 289 290 289 290 290 289 288 287 287 288 287 286 287 287 288 288 286 287 287 286 288 288 288 289 290 289 291 291 289
289 290 291 291 291 290 290 289 289 289 288 288 287 288 287 287 287 287 287 287 287 287 287 286 286 286 286 287 286 286 286 286 287 287 287 287 287 287 287 287 287 287 287 287 287 287 289 288 289 288 287 288 288 289 289 289 289 288 287 286 286 287 286 286 286 286 286 287 289 287 287 288 287 289
288 288 289 290 290 290 289 289 289 288 288 288 287 287 287 287 286 286 286 287 286 286 286 286 286 286 287 287 287 286 286 287 287 287 286 286 286 286 287 286 287 288 287 287 287 286 285 285 285 284 289 288 289 289 289 287 286 287 287 287 286 286 286 287 288 286 286 287 287 286 286 285 285 286
287 287 288 289 289 289 289 288 288 287 287 287 287 286 286 286 286 286 286 286 286 286 286 286 286 286 286 287 287 287 286 286 286 286 286 286 286 287 287 287 287 287 287 285 285 284 285 287 286 288 288 288 288 287 286 285 286 287 286 288 287 286 287 286 287 287 289 288 287 286 286 286 286 285
286 286 286 286 287 287 288 287 286 286 286 286 286 286 286 286 286 286 286 285 286 286 286 286 286 287 287 287 287 287 286 285 286 285 285 286 286 286 287 287 287 287 287 286 286 286 287 288 290 289 289 288 287 287 285 285 286 286 287 288 288 288 288 287 287 286 286 287 287 287 287 286 284 282
285 285 285 286 286 286 286 286 286 286 285 285 286 286 286 286 285 285 286 286 286 285 286 286 286 287 286 286 286 286 286 285 285 285 286 286 287 287 286 286 286 286 286 286 286 287 288 288 288 289 287 286 287 286 284 286 287 287 287 286 287 287 288 289 288 287 286 285 285 285 285 286 286 286
285 285 285 285 285 286 286 286 286 286 285 285 286 285 285 285 285 285 286 286 286 286 286 286 286 286 286 286 285 285 285 286 286 286 286 286 286 287 286 286 286 286 286 287 286 286 287 287 288 288 287 286 286 286 285 285 286 286 286 286 286 287 288 288 287 288 289 289 287 285 286 286 285 285
Wind_Speed
13 12 15 16 16 16 14 13 11 11 11 10 9 8 10 7 10 12 13 12 8 13 14 11 12 8 7 7 8 9 7 10 11 9 9 9 9 13 17 17 17 16 16 16 16 17 16 16 16 15 15 14 14 13 12 10 10 9 8 8 7 5 4 3 2 2 2 3 4 4 5 6 6 7
12 13 12 12 15 14 14 14 12 12 12 12 11 10 9 9 9 11 12 11 9 7 11 11 12 13 12 9 9 8 8 14 12 10 9 9 9 15 16 16 15 15 16 17 17 17 16 16 16 15 14 14 13 12 12 10 10 9 8 7 7 6 5 4 3 2 2 2 3 4 5 5 6 7
13 14 16 15 14 13 13 14 13 13 12 11 10 10 9 10 11 12 12 13 10 9 8 12 13 14 16 13 11 10 8 12 12 8 8 8 14 15 12 15 16 15 16 17 17 17 17 16 15 15 15 13 13 13 12 12 10 9 8 7 7 7 5 4 2 1 1 2 3 4 5 5 6 7
13 14 16 15 14 13 13 15 15 15 14 13 12 11 10 10 11 9 9 10 13 9 7 11 13 16 15 16 13 12 9 11 12 10 8 12 15 9 7 12 15 15 16 16 17 17 17 16 16 15 15 15 14 13 12 11 11 10 9 8 8 7 6 4 2 1 1 2 2 4 4 5 6 7
15 16 16 16 16 15 16 15 14 14 16 15 13 13 12 12 10 11 12 12 13 12 6 7 9 13 16 14 14 14 12 12 8 11 11 12 10 9 8 8 12 14 14 15 16 16 16 16 15 15 15 15 14 13 13 12 11 11 9 7 6 6 6 4 3 1 1 2 2 3 4 5 6 7
14 15 18 17 17 16 17 16 18 16 16 17 16 14 15 13 12 10 11 12 10 12 7 5 4 8 13 13 14 12 14 14 12 13 12 10 10 10 9 9 7 12 14 15 15 15 16 15 15 15 15 14 14 14 13 12 11 10 9 8 7 7 5 4 3 1 1 2 3 4 4 5 7 8
16 17 16 18 16 13 16 16 16 15 16 16 15 16 14 14 13 11 12 11 10 9 10 7 11 10 10 9 13 13 13 13 13 14 13 12 9 8 10 9 8 11 14 15 15 15 15 15 15 14 14 14 14 13 13 12 11 10 9 8 7 7 5 4 2 2 2 3 3 4 5 6 7 8
17 18 17 17 18 17 18 17 16 16 13 14 17 17 16 13 13 12 12 14 11 7 10 6 11 12 12 11 14 14 14 14 13 12 12 11 10 10 9 9 9 9 13 15 15 15 15 15 15 14 14 13 14 14 13 12 12 11 10 9 7 7 6 5 4 3 2 3 3 5 5 6 7 9
16 17 18 18 18 18 18 17 17 15 16 15 15 14 15 15 15 12 13 13 12 11 10 5 8 11 11 12 13 15 15 13 13 12 12 11 11 10 9 8 8 11 11 13 13 14 14 15 14 14 13 12 14 14 13 12 12 12 11 10 9 8 7 6 5 4 3 3 3 5 6 7 8 9
16 16 18 19 18 18 18 18 17 18 20 17 17 16 15 11 13 17 16 10 12 12 9 8 10 12 13 11 12 14 14 15 13 12 11 10 10 10 9 8 8 7 7 7 7 9 11 11 11 12 13 13 13 14 13 13 13 12 12 11 10 9 7 7 5 4 4 4 5 5 6 7 8 10
17 17 17 18 19 20 19 20 19 17 18 16 18 14 15 17 19 16 17 14 15 12 10 10 8 10 10 11 13 13 13 13 14 15 13 10 8 7 9 10 7 7 8 8 9 9 9 12 11 11 13 13 13 14 13 13 13 12 11 10 10 8 8 6 5 4 4 5 5 5 5 7 8 10
18 18 19 18 19 21 21 20 19 18 17 15 17 17 16 18 15 12 13 14 12 13 13 11 11 8 10 10 10 12 13 11 10 11 12 14 12 10 9 10 11 10 9 9 8 8 10 9 9 11 11 12 13 13 13 14 13 13 11 11 9 9 8 7 5 5 5 5 5 5 6 6 7 10
19 18 18 19 20 21 21 22 17 15 15 13 16 15 15 13 12 14 14 14 13 11 13 13 12 12 13 13 14 14 14 13 14 12 9 9 10 11 11 10 10 10 11 9 9 9 9 9 9 9 8 9 12 12 14 12 15 14 11 11 10 9 8 6 6 5 6 6 6 6 6 8 8 9
19 19 18 18 22 22 22 22 23 20 20 18 14 14 14 14 12 14 12 14 12 13 15 12 13 15 14 14 15 14 13 11 10 12 12 12 12 11 10 9 9 10 11 11 11 10 9 9 9 9 9 9 11 8 10 9 11 12 13 11 10 9 9 7 6 6 6 6 7 8 8 8 9 9
18 18 19 19 20 20 20 20 24 24 23 21 19 19 17 12 14 13 19 15 15 13 11 12 14 14 15 15 14 13 13 10 14 15 13 12 13 13 14 13 9 10 12 11 10 10 10 10 10 10 10 10 10 10 11 14 16 15 14 12 11 10 9 8 7 7 7 7 8 8 9 9 10 10
17 18 17 17 16 17 20 22 21 23 26 25 21 19 19 18 19 14 15 14 14 13 12 12 12 14 15 15 14 12 12 12 11 12 12 13 15 14 12 12 13 13 15 12 11 10 11 10 9 9 10 10 11 12 13 18 19 17 14 12 11 10 9 8 8 8 8 8 8 8 9 10 10 10
18 16 16 16 16 16 19 17 20 21 21 23 25 20 20 19 19 20 22 16 14 15 15 15 14 15 15 16 14 15 17 15 16 13 12 12 12 11 12 11 10 13 16 12 10 10 11 11 9 9 9 10 8 7 15 19 19 17 14 13 11 10 9 8 9 8 9 8 9 9 9 9 10 11
19 19 17 17 17 17 18 18 20 21 21 18 14 15 13 14 17 17 19 17 19 15 15 14 15 14 14 14 14 16 16 17 15 15 14 13 12 12 12 11 10 13 14 13 10 8 9 10 8 9 9 7 9 9 12 17 17 15 14 12 12 10 9 9 9 10 9 9 9 9 9 10 11 12
21 21 19 19 18 17 18 17 19 20 20 21 16 13 16 16 15 13 12 12 11 11 9 8 12 12 12 13 15 17 14 15 14 15 15 15 12 8 8 9 10 12 12 11 9 7 9 9 9 8 8 8 9 8 14 17 17 15 14 12 12 11 10 10 10 10 10 10 10 10 10 11 12 13
20 20 21 20 20 19 19 20 20 18 17 19 20 17 15 16 16 15 6 12 15 15 15 12 10 11 10 15 16 15 15 9 8 11 10 10 10 10 9 9 8 9 8 8 8 7 9 10 9 8 8 9 7 9 8 13 15 14 13 12 11 12 11 11 11 11 10 11 10 11 12 12 12 13
21 20 21 21 20 20 19 20 20 18 15 18 20 20 16 15 15 6 5 8 9 2 6 18 17 13 15 19 18 18 19 16 15 11 11 9 10 10 10 9 10 10 10 9 10 7 8 9 8 7 8 9 8 9 8 8 11 14 14 13 13 13 13 14 12 12 12 11 12 13 13 13 12 14
19 21 25 25 23 22 21 20 20 18 13 15 21 19 17 10 7 6 5 6 7 15 15 11 11 14 20 23 23 22 21 22 18 15 13 13 12 12 10 11 9 9 10 9 8 5 6 9 8 6 7 7 6 9 10 9 9 12 11 14 14 14 15 16 15 14 13 13 14 14 14 12 11 9
18 19 21 26 26 24 22 20 20 19 12 13 18 18 14 10 11 9 11 10 10 8 9 7 10 9 10 12 13 15 23 22 17 10 13 14 13 12 11 10 10 8 8 10 10 6 7 11 8 7 8 6 6 6 9 10 9 9 9 9 10 14 15 17 16 16 15 15 15 15 13 12 10 6
18 19 19 21 25 29 29 25 24 22 13 12 18 17 15 11 14 11 10 10 10 9 10 9 7 9 6 9 11 12 12 11 8 8 10 12 12 11 9 11 11 9 9 10 12 6 6 9 8 7 7 7 6 8 8 9 10 10 10 10 9 13 17 16 14 17 16 15 16 14 13 13 11 5
17 17 18 17 20 23 24 24 27 29 23 16 17 16 13 12 12 14 10 10 12 10 10 9 9 8 9 8 9 10 10 9 8 9 9 7 4 6 10 10 7 4 6 10 15 5 5 7 7 7 6 7 5 8 7 6 7 8 8 7 7 9 9 10 10 10 15 18 16 14 13 14 13 8
17 17 16 15 18 21 21 24 26 29 24 22 15 17 10 15 23 14 12 11 9 9 8 10 9 9 9 10 8 8 7 8 8 10 9 6 3 3 6 8 8 6 5 10 15 6 4 7 7 8 7 6 4 8 7 7 7 7 6 7 6 5 7 5 4 3 1 5 7 10 11 15 15 14
17 15 15 16 20 21 24 24 26 25 24 19 17 13 18 21 21 16 11 11 10 10 9 9 11 10 10 10 9 9 8 7 9 10 8 7 7 6 6 7 7 8 9 9 8 4 5 6 5 7 7 6 5 7 7 6 7 6 6 6 5 5 4 3 3 2 2 3 4 12 17 17 16 15
15 15 15 14 21 23 24 26 26 23 20 15 12 16 20 22 18 11 11 10 10 9 11 10 10 9 8 9 8 8 8 9 9 10 10 10 9 8 10 11 10 8 9 8 8 8 6 4 5 4 5 7 6 6 6 5 6 7 6 5 4 3 3 2 2 2 3 2 4 4 5 5 3 5
15 17 19 20 19 17 17 18 20 18 20 16 17 20 22 20 11 11 11 11 11 10 10 10 9 9 8 8 7 8 10 11 11 12 10 9 9 11 12 11 10 9 8 8 7 4 2 3 5 4 3 4 5 5 3 5 5 5 3 2 3 4 1 1 1 2 2 3 4 4 5 5 5 5
22 23 24 14 15 13 12 10 9 8 9 17 21 22 20 11 11 11 11 10 11 10 11 11 11 11 10 10 9 9 10 10 11 12 12 11 9 11 11 10 6 4 4 6 6 5 5 5 6 5 5 3 1 3 3 3 5 5 4 4 1 1 3 1 1 2 2 3 4 5 5 5 6 5
17 19 17 9 9 8 11 11 11 11 13 13 13 12 10 8 10 11 12 12 11 11 12 10 10 10 10 11 11 10 11 11 10 10 11 10 10 8 10 11 8 6 6 5 4 5 6 5 5 5 6 4 4 3 3 1 3 4 4 4 2 0 1 1 1 2 3 3 5 5 5 4 5 5
13 8 6 7 6 7 7 7 7 7 8 9 10 9 8 7 9 11 13 12 9 8 11 12 11 11 11 12 10 8 9 10 10 10 9 8 9 10 9 9 6 6 6 5 5 6 6 6 5 5 4 4 5 4 3 3 3 3 3 3 2 1 0 1 2 2 3 5 5 4 4 5 5 5
9 8 7 5 6 7 7 5 6 7 8 6 6 8 8 9 11 11 10 12 13 14 14 14 14 13 11 9 8 8 10 10 11 8 9 8 10 9 7 8 8 8 8 6 4 6 6 6 6 6 6 5 5 4 4 3 3 2 2 2 1 0 1 1 2 3 4 4 4 4 5 5 5 5
9 8 8 7 7 6 7 8 7 7 8 8 7 5 8 9 10 10 11 12 13 12 13 13 14 13 13 12 10 9 11 10 8 8 10 9 10 8 7 9 8 8 8 8 8 7 7 7 7 7 7 6 6 7 5 2 3 3 2 1 1 0 1 1 2 3 4 4 5 4 5 5 5 4
9 8 7 6 6 7 7 9 9 9 8 8 9 9 8 6 9 9 11 11 11 8 11 10 12 12 13 13 11 11 11 11 8 8 8 8 9 7 7 7 8 7 8 8 8 8 8 8 8 7 6 6 5 4 8 8 3 4 2 1 2 2 2 3 3 4 4 5 4 3 4 5 5 5
6 6 8 8 7 7 7 7 8 9 10 9 9 9 8 7 6 8 9 11 11 9 11 13 13 12 11 10 11 12 11 13 10 7 8 7 6 6 5 7 8 8 7 8 9 8 8 8 7 7 5 5 4 3 2 8 9 4 2 1 2 3 2 3 4 4 4 4 4 4 4 4 5 6
4 4 5 7 7 8 9 8 7 8 8 10 8 8 10 10 8 10 11 12 12 9 10 12 11 11 11 11 11 11 12 12 13 10 8 5 5 6 7 7 8 8 8 8 8 8 7 7 6 6 5 4 5 4 4 2 6 8 4 2 1 2 3 2 2 3 2 3 4 4 3 4 5 6
1 2 3 4 6 7 6 6 7 8 9 6 7 7 8 10 11 13 12 11 12 11 12 10 10 10 10 11 13 12 12 13 13 11 8 6 6 6 6 7 7 7 9 8 7 6 5 5 4 3 3 3 4 6 6 3 2 3 6 4 2 2 2 2 2 2 2 4 4 4 5 4 5 5
3 2 2 3 5 5 6 5 6 9 11 8 8 10 10 11 11 11 10 8 11 10 10 12 11 9 9 10 10 12 14 14 13 11 9 6 5 6 7 7 7 6 7 7 7 6 5 5 4 3 3 3 5 5 3 4 5 5 2 5 3 2 2 2 2 2 2 3 3 5 4 4 6 6
5 5 5 5 6 6 7 7 7 8 10 10 10 11 11 11 10 9 9 9 9 11 10 11 12 10 7 9 11 12 14 15 13 10 8 6 6 6 7 6 8 8 7 7 6 5 6 6 6 5 4 4 4 4 3 5 6 5 4 3 4 4 2 2 2 3 3 4 5 4 5 5 5 6
6 6 5 5 6 6 7 7 8 8 9 11 12 11 11 11 12 11 9 11 12 13 13 13 11 8 8 8 9 13 14 12 10 10 8 7 6 5 7 8 8 7 8 7 6 6 5 5 2 3 4 4 3 1 2 2 3 4 5 4 3 1 4 2 1 2 2 4 4 4 5 6 7 7
7 7 6 6 6 7 7 8 8 8 9 10 10 12 11 10 10 14 13 13 12 12 11 11 10 10 8 7 8 11 13 12 11 9 8 8 8 7 7 7 8 7 7 8 7 6 5 5 3 2 2 2 1 1 1 1 2 3 3 3 5 5 6 7 5 5 4 2 3 4 4 5 6 6
9 9 8 7 7 7 8 8 7 8 8 9 7 9 9 10 10 10 7 11 11 11 11 11 10 10 8 7 7 10 12 12 11 10 9 8 7 7 7 6 6 7 7 8 7 7 5 4 3 2 2 2 1 1 3 2 1 2 1 1 2 1 5 9 10 10 10 8 5 2 2 3 5 7
9 10 8 7 7 8 8 9 9 8 9 10 8 7 7 9 11 12 11 11 10 10 10 10 10 9 9 9 9 10 11 11 10 10 8 5 5 6 7 8 7 7 7 8 7 6 5 4 3 2 3 3 2 3 3 1 2 2 3 3 2 2 3 2 5 9 8 8 9 9 9 9 9 9
9 9 9 7 7 7 8 8 7 8 9 8 8 11 11 11 11 12 11 9 8 9 10 10 11 10 9 9 10 11 10 10 9 7 7 8 7 7 7 7 7 6 7 6 7 6 5 4 4 4 4 3 3 3 3 3 2 2 2 1 0 2 1 2 3 4 3 2 9 12 12 13 13 14
Wind_Direction
235 231 221 226 231 228 224 221 216 216 219 220 216 211 212 227 255 272 256 240 247 190 201 192 190 163 146 168 174 170 152 140 157 155 147 145 142 151 147 149 148 149 146 142 137 135 133 131 130 133 133 132 134 134 130 126 125 123 122 125 124 124 122 120 116 103 56 42 35 17 360 357 359 347
243 232 226 224 230 226 223 222 213 216 216 217 214 213 210 208 225 248 258 256 240 210 196 186 175 165 157 164 180 187 149 152 164 159 144 139 138 143 141 141 141 143 143 139 137 137 137 136 136 137 138 138 135 135 135 135 133 133 135 138 141 141 139 130 129 111 69 34 17 13 350 352 349 343
246 243 236 230 229 221 223 225 224 220 210 212 211 214 212 204 215 238 260 263 248 239 203 172 180 175 174 175 168 174 142 161 164 147 128 125 130 135 137 140 142 143 141 138 137 138 140 141 142 144 142 138 140 141 140 138 133 133 139 144 149 149 141 137 122 114 64 20 4 1 344 343 343 339
246 244 242 231 231 227 224 225 226 225 220 213 210 212 215 211 209 226 262 275 282 263 228 183 200 172 180 183 173 162 137 156 180 141 112 124 128 127 128 136 139 141 141 139 139 140 142 144 144 145 145 143 144 143 137 134 136 138 143 151 153 150 147 140 129 132 36 8 351 349 335 340 337 333
259 248 243 239 230 226 229 226 224 223 226 219 211 211 215 221 214 209 229 247 265 275 265 177 183 176 172 183 181 173 145 153 155 130 132 141 142 135 137 136 139 140 141 139 139 140 141 141 142 144 144 142 142 140 136 137 140 141 140 138 138 147 150 145 143 122 350 334 338 338 334 335 332 327
254 257 248 243 240 233 235 234 231 227 225 225 220 212 215 218 217 202 217 227 242 263 253 176 182 158 150 169 186 191 165 161 156 149 147 151 148 144 142 142 142 141 138 138 138 139 140 141 142 144 143 141 141 140 138 138 141 141 143 146 145 146 144 148 148 163 291 317 324 331 331 331 326 320
258 258 256 247 243 239 237 231 233 232 231 229 224 219 214 215 212 207 208 221 237 253 265 147 157 160 174 172 173 167 162 156 154 153 157 155 149 145 146 143 139 144 139 138 139 140 141 142 143 144 145 143 141 140 140 143 145 146 150 150 152 151 148 151 161 187 266 291 314 325 326 324 316 313
267 258 258 257 246 240 240 237 232 231 222 225 232 229 222 213 207 202 203 211 218 231 238 159 174 168 166 173 165 160 157 154 159 156 152 150 144 142 140 135 137 144 139 140 141 143 144 144 146 147 147 143 144 142 144 146 150 154 157 160 162 163 168 175 189 210 245 288 316 311 315 313 309 307
265 267 263 260 257 246 244 241 236 230 227 222 222 221 225 224 217 208 205 206 204 223 234 169 186 163 172 169 161 161 155 155 154 152 151 151 146 140 135 127 117 125 126 134 138 143 145 146 147 149 147 147 149 148 149 153 157 161 164 166 170 175 181 188 195 210 232 258 283 301 303 307 306 307
252 256 259 261 258 256 250 246 240 236 233 231 232 224 224 224 226 220 207 190 209 225 222 175 170 178 177 164 162 164 158 152 149 147 144 143 140 130 122 117 132 146 147 146 136 136 143 143 142 146 151 153 154 153 155 159 165 168 172 174 176 181 188 192 197 207 231 242 257 272 291 300 306 306
252 249 251 254 256 257 256 249 245 241 236 233 230 220 221 222 223 215 216 201 200 213 207 200 204 184 161 158 161 165 164 158 153 149 146 142 141 133 133 134 142 150 148 142 150 158 158 154 158 157 157 159 160 161 161 168 170 174 176 177 181 186 190 196 195 211 228 245 251 263 271 290 301 302
253 250 246 245 249 252 254 252 249 248 243 235 234 231 226 225 223 215 210 202 199 207 221 202 191 176 159 155 159 159 161 157 157 163 156 155 156 157 154 155 156 158 153 152 160 146 135 154 145 155 164 166 168 167 169 174 176 178 179 182 186 186 194 194 200 212 237 253 265 270 275 284 287 293
253 252 248 244 242 245 252 260 267 261 255 243 236 230 224 218 216 217 215 209 194 201 215 212 185 172 173 169 163 166 172 170 169 161 153 146 148 150 153 160 163 160 155 158 161 165 169 165 172 174 179 181 176 177 181 181 184 181 181 186 187 190 196 194 205 221 238 255 267 272 273 280 283 282
253 252 251 248 244 245 249 254 261 263 265 265 258 243 226 219 215 219 220 210 194 202 209 191 179 175 179 177 171 169 173 166 150 150 157 154 155 147 150 154 168 167 165 162 170 175 175 174 170 185 185 180 184 185 194 190 187 180 184 185 187 194 193 201 210 226 242 250 265 271 274 277 281 279
251 251 251 252 248 242 241 245 251 258 259 260 256 251 240 228 215 205 222 217 199 194 196 191 189 181 176 176 170 166 163 159 162 167 169 158 156 162 159 168 167 183 172 168 166 174 179 179 180 190 197 179 187 197 195 187 173 172 181 184 187 192 196 204 215 228 241 250 259 269 274 279 282 282
248 248 249 250 251 245 240 238 238 243 249 248 247 243 232 212 225 234 229 201 199 200 193 200 198 179 179 175 165 161 159 164 164 169 168 165 166 167 171 167 181 178 175 171 175 176 175 190 186 189 206 184 185 206 175 163 160 167 178 181 186 191 199 207 217 229 241 249 256 263 273 278 279 279
254 250 248 248 247 247 239 236 240 241 237 233 232 231 230 221 207 211 235 238 208 194 209 201 192 186 178 172 172 166 169 166 168 167 172 172 174 175 178 180 166 164 177 171 177 175 174 186 190 196 209 183 162 126 143 151 155 166 174 179 184 190 202 210 217 230 240 248 258 262 272 276 275 274
253 254 252 248 246 246 243 238 237 238 241 238 213 217 217 222 218 216 216 210 217 224 208 197 198 189 178 174 168 169 167 167 171 172 181 175 171 175 186 176 158 155 172 176 167 160 169 185 189 203 206 160 137 153 144 150 158 167 175 178 186 193 204 210 220 230 240 247 256 263 266 272 273 274
249 250 253 253 252 249 245 241 236 236 235 239 232 205 210 210 215 207 211 214 204 204 207 212 199 192 176 171 159 170 176 178 174 178 176 167 158 128 97 97 131 149 173 175 162 165 167 181 194 204 201 178 158 135 153 157 163 170 175 180 190 198 203 212 223 230 237 246 253 260 265 267 272 275
247 247 248 251 251 250 252 251 243 238 240 237 237 228 212 209 211 214 192 207 215 212 200 201 202 194 171 161 167 171 167 144 102 93 84 82 101 114 120 128 143 151 166 170 171 175 167 174 194 192 204 181 143 137 155 167 166 171 179 186 195 204 208 216 225 230 236 241 248 255 260 264 269 276
246 243 243 245 249 248 247 253 254 241 229 240 240 237 223 219 213 157 86 65 78 79 233 195 198 170 147 152 158 161 147 143 136 121 123 140 141 132 138 145 159 173 170 188 191 187 159 173 188 192 185 170 158 155 160 166 178 178 187 194 203 207 211 220 223 228 233 236 242 248 254 261 267 276
245 243 240 243 247 249 246 244 255 253 225 232 237 239 235 197 150 133 120 99 71 92 85 79 115 158 160 156 154 156 153 148 148 147 159 159 153 161 153 155 168 156 177 188 191 203 163 162 195 189 149 163 199 166 158 164 176 186 194 203 207 210 214 218 223 225 226 232 238 242 248 255 266 276
244 243 239 236 240 246 253 249 250 257 241 230 236 236 231 184 179 157 149 129 131 120 100 96 92 80 109 129 142 153 151 157 164 165 153 150 160 158 163 145 143 146 196 190 190 183 158 160 193 182 155 185 191 200 149 160 169 184 197 201 212 217 218 221 223 222 226 228 233 237 240 244 252 283
243 240 240 238 232 237 247 258 264 266 260 255 243 233 225 179 190 157 152 149 136 131 126 127 111 110 114 128 130 130 130 130 111 114 149 161 163 158 149 161 169 173 169 170 183 188 154 158 177 190 168 173 179 185 167 164 176 184 196 199 201 207 214 227 230 232 228 228 231 232 234 238 238 282
241 239 238 239 234 230 235 242 247 254 253 250 256 239 221 198 150 136 131 128 129 120 120 116 121 117 121 126 129 135 137 125 112 118 127 137 139 148 157 162 174 141 133 162 171 208 153 162 171 178 186 206 180 162 174 182 188 187 196 208 211 180 197 216 225 228 213 224 228 225 228 233 227 227
239 238 239 240 235 231 231 231 235 241 240 241 246 242 198 130 134 149 137 138 130 122 124 128 127 133 133 136 136 132 128 123 122 125 132 131 95 118 160 164 159 139 143 157 167 187 159 181 179 169 191 195 170 153 166 191 187 185 193 199 225 183 191 226 232 281 277 189 211 203 222 225 228 218
238 240 238 240 240 229 225 226 227 228 224 225 237 227 139 146 139 134 145 136 133 130 127 129 137 140 142 138 143 141 133 122 118 117 106 91 89 76 74 75 87 118 132 146 163 237 217 182 159 168 180 186 184 162 166 185 180 172 188 206 196 204 208 208 252 288 307 287 311 174 204 219 222 214
239 236 235 233 238 235 226 222 218 212 205 208 194 149 150 139 141 131 135 140 136 129 133 138 138 137 133 130 131 136 128 123 120 111 104 100 98 97 93 94 97 102 127 144 176 226 227 155 149 175 188 179 187 178 189 195 146 168 203 165 188 203 167 204 246 266 263 293 305 302 322 322 308 216
233 242 240 239 231 214 200 195 196 198 195 168 148 151 143 143 135 142 140 139 134 133 144 145 136 131 129 122 116 116 121 115 106 100 89 84 87 91 89 88 104 130 146 171 189 191 123 113 123 122 140 165 185 186 190 162 167 178 123 113 224 142 139 225 245 275 313 317 304 318 312 314 301 301
228 238 252 231 201 198 192 178 174 175 166 155 148 146 149 143 138 138 141 135 142 137 142 141 141 139 127 121 121 119 119 113 116 116 115 111 98 98 104 109 105 91 120 144 148 129 114 119 136 144 136 139 188 138 179 152 163 126 148 207 158 347 207 193 286 309 311 325 329 313 307 300 299 309
227 237 241 203 195 164 172 167 150 135 143 145 144 150 151 135 135 144 147 150 137 140 136 134 129 127 123 119 124 138 134 122 125 122 122 117 117 112 117 118 118 113 105 85 74 88 93 93 118 141 140 132 120 101 111 167 154 159 162 145 148 239 60 349 305 336 357 336 319 301 290 301 307 309
213 195 168 157 135 116 107 103 110 132 142 142 148 146 142 129 139 136 129 127 123 117 130 123 119 118 129 132 133 133 127 127 128 130 116 119 117 122 126 116 126 129 116 100 76 68 87 106 104 87 96 125 129 126 142 187 188 164 144 132 156 227 163 297 344 340 15 338 305 308 316 310 318 317
155 151 153 148 140 130 124 119 128 134 130 127 126 126 129 126 133 136 136 133 131 132 130 135 136 138 130 127 128 135 131 132 131 131 118 119 119 127 130 128 139 142 135 126 117 107 95 85 81 92 92 81 89 139 171 169 169 144 155 123 105 238 200 41 359 353 348 315 310 310 313 321 315 313
152 155 154 157 148 142 140 140 137 137 136 128 118 115 119 125 130 133 133 132 138 138 136 134 138 139 139 137 144 142 134 125 124 124 125 130 130 140 147 141 142 136 127 126 128 130 125 117 108 98 95 87 70 36 8 342 152 142 116 119 138 300 46 9 12 348 327 315 308 305 317 319 307 326
148 152 147 149 146 147 149 149 148 141 138 137 129 128 129 122 124 124 129 134 136 128 128 131 135 139 141 145 148 143 134 126 128 132 127 126 135 147 151 138 134 134 133 132 137 141 139 141 140 129 130 127 103 67 35 10 9 58 62 59 48 15 4 17 356 327 317 297 302 317 311 305 322 336
145 153 148 148 153 152 150 149 144 145 142 145 134 127 122 120 122 127 128 137 133 132 136 138 140 140 141 141 143 137 133 129 133 131 121 126 139 138 134 130 126 126 129 136 138 143 148 149 150 146 148 163 157 148 112 17 19 20 21 42 22 16 356 1 333 305 288 303 325 312 315 323 328 327
130 144 148 146 150 156 153 152 148 144 145 144 139 130 129 129 127 130 130 132 132 129 129 133 134 139 136 143 138 137 133 134 125 114 113 122 128 134 129 128 129 133 132 132 136 141 148 151 162 161 165 168 194 160 114 129 21 11 26 25 10 22 4 328 308 289 304 329 316 327 332 324 313 321
130 121 139 143 149 147 145 148 142 131 136 129 118 107 104 118 126 128 130 130 132 128 132 129 129 135 142 151 142 135 126 118 111 113 119 128 138 138 135 132 132 130 128 129 131 132 134 138 154 167 215 210 194 136 141 140 129 70 13 357 21 4 324 309 302 332 335 323 333 340 332 311 320 317
34 73 115 145 150 133 134 121 119 129 134 119 120 124 123 124 126 130 133 126 133 129 126 128 131 138 156 152 134 132 128 120 118 122 129 143 143 134 129 127 122 124 125 123 120 116 113 107 96 71 40 37 52 56 90 136 131 123 74 11 41 358 7 344 329 333 328 336 338 329 309 316 312 331
36 48 61 80 98 107 115 118 123 122 124 123 122 124 123 125 129 128 125 126 124 122 118 122 129 144 155 138 134 125 112 112 119 125 128 129 130 127 127 129 128 129 125 120 118 108 93 75 55 56 67 67 55 37 55 77 112 130 129 90 53 38 34 350 348 337 332 344 330 325 333 341 335 340
42 53 54 70 87 96 104 107 110 114 116 116 118 121 119 121 122 126 126 124 127 128 130 131 137 141 133 130 131 122 116 113 113 114 118 125 124 126 125 127 124 126 121 113 98 90 82 80 107 322 43 93 79 77 115 141 159 154 152 150 168 216 113 96 1 335 330 322 322 331 338 347 343 332
44 55 54 61 72 72 84 94 100 108 115 121 121 123 122 118 117 117 116 117 121 124 124 124 126 119 115 116 115 109 109 112 112 111 118 123 126 123 122 120 119 118 113 111 107 102 111 117 117 87 93 127 165 214 163 108 109 96 56 134 161 201 209 197 228 242 257 307 333 337 341 340 347 337
51 55 57 62 64 71 79 84 88 103 111 111 93 109 107 110 113 113 109 116 119 121 121 117 114 110 107 107 107 108 108 109 112 115 121 126 126 125 123 115 104 99 99 104 108 120 130 143 145 161 176 153 87 34 78 83 59 80 135 96 72 140 190 203 221 230 235 244 257 294 314 333 341 337
58 61 56 59 72 77 81 88 91 90 99 102 92 91 96 109 114 114 117 119 123 123 120 116 111 104 106 109 111 105 104 110 115 121 122 117 108 101 100 100 103 110 113 116 123 127 130 130 138 130 99 77 73 83 103 143 124 81 58 44 16 320 307 171 211 233 235 223 233 240 259 265 251 252
56 62 64 65 70 70 76 88 84 96 98 92 89 104 105 105 113 117 113 114 117 118 116 113 114 111 109 111 108 107 107 111 110 104 104 102 100 103 106 114 118 119 115 119 118 117 118 115 110 103 99 100 92 98 86 52 71 94 80 77 303 323 324 5 333 320 297 219 192 208 232 237 251 261